Location: Linz
(48.3300°N, 14.3000°E)
Time: 02:38:37
(UTC+01:00)

Envisat - Pass Details

Date: 18 November 2017
Orbit: 764 x 766 km, 98.2° (Epoch: 24 November)

Event Time Altitude Azimuth Distance (km) Brightness Sun altitude
Exits shadow 18:46:43 16° 11° (N) 1,925 4.9 -24.0°
Drops below altitude 10° 18:47:53 10° 3° (N) 2,313 5.4 -24.2°
Sets 18:50:23 0° 354° (N) 3,244 6.3 -24.6°
